Find Starlink 4536

NORAD ID: 53783 Int'l Des: 2022-111 Owner: SPXS Country: US Constellation: starlink operational
LEOCIRCULAR

Current View

Loading 3D Globe...

About Starlink 4536

Description loading...

Upcoming Passes

Passes for default location (London). Set your location on the main map for personalized predictions.

Altitude History

Loading altitude history...

Two-Line Element Set

1 53783U 22111L 26159.48060962 .00001831 00000-0 13315-3 0 9990
2 53783 53.1663 226.4205 0001309 92.4604 267.6537 15.08824706207401
Epoch: Jun 8, 2026 • Age: 13 hours

Current Status

Altitude 540.7 km
Velocity 7.59 km/s
Sub-Earth Point 0.22°N, 37°W
Launch Date Sep 11, 2022
Age 3.7 years
Type internet

Technical Details

Classification Payload
Mass 305.00 kg
Dry Mass 290.00 kg
Total Mass 305.00 kg
Length 0.20 m
Diameter 2.80 m
Span 9.00 m
Shape Box + pan
Manufacturer SPXS
Bus Type Starlink
Phase Status In Orbit
Owner/State SPXS/US

Most Searched